Regional Weather Roundup
Issued by NWS New Orleans/Baton Rouge, LA

Home | Current Version | Previous Version | Text Only | Print | Product List | Glossary On
Versions: 1 2 3 4 5 6 7 8 9 10 11 12 13 14 15 16 17 18 19 20 21 22 23 24 25 26 27 28 29 30 31 32 33 34 35 36 37 38 39 40 41 42 43 44 45 46 47 48 49 50
000
ASUS44 KLIX 270711
RWRLIX
NEW ORLEANS REGIONAL WEATHER ROUNDUP
NATIONAL WEATHER SERVICE NEW ORLEANS LA
200 AM CDT FRI MAR 27 2015

NOTE: "FAIR" INDICATES FEW OR NO CLOUDS BELOW 12,000 FEET WITH NO
      SIGNIFICANT WEATHER AND/OR OBSTRUCTIONS TO VISIBILITY.
      SKY/WX - SKY CONDITION AND SIGNIFICANT WEATHER.
      TMP - AIR TEMPERATURE.     DP    - DEWPOINT TEMPERATURE.
      RH  - RELATIVE HUMIDITY.   PRES  - PRESSURE.
      HI  - HEAT INDEX.          WCI   - WIND CHILL INDEX.

*  THESE STATIONS ARE NOT NWS OR FAA STATIONS AND ARE NOT UNDER
   NWS QUALITY CONTROL.

LAZ038-040-048-061>063-065>067-069-270800-
SOUTHEAST LOUISIANA

CITY           SKY/WX    TMP DP  RH WIND       PRES   REMARKS
N.O. AUDUBON     N/A     59  55  88 MISG        N/A
N.O. INTL ARPT CLOUDY    58  51  78 N14       29.95F
N.O. LAKEFRONT CLOUDY    59  51  75 N25       29.95F
SLIDELL        CLOUDY    56  51  84 N13       29.93S
BATON ROUGE    CLOUDY    54  46  74 N9        30.01S
BOOTHVILLE     CLOUDY    66  64  93 NW12      29.90S
BELLE CHASSE   CLOUDY    59  53  80 N9        29.93S
BOGALUSA*        N/A     56  50  80 N10       29.98S
GALLIANO*      CLOUDY    51  50  95 MISG      29.93S
NEW ROADS*     CLOUDY    52  44  74 N14G26    30.03S
GONZALES*      CLOUDY    55  49  80 N15G22    29.98S
HAMMOND*       CLOUDY    55  48  76 N14G20    29.99F
HOUMA*         CLOUDY    57  54  91 N10       29.96S
PORT FOURCHON* CLOUDY    63  61  94 N20       29.96R

$$

MSZ070-080>082-270800-
SOUTHERN MISSISSIPPI

CITY           SKY/WX    TMP DP  RH WIND       PRES   REMARKS
MCCOMB         CLOUDY    51  46  83 N13G23    30.00R
GULFPORT       CLOUDY    58  54  86 N17       29.90S
BILOXI         CLOUDY    59  55  88 N12G21    29.91R
PASCAGOULA     CLOUDY    60  58  92 NW10G20   29.88R

$$

COASTAL OBSERVATIONS
LAKE AND NEARSHORE STATIONS

STATION/POSITION TIME  TEMP    WIND        PRES    WAVE
                       AIR SEA DIR/SP/G            HT/PER
                 (UTC) (F)     (DEG/KT/KT) (MB)    (FT/S)
PASCAGOULA       0600   66     290/  9/ 12 1010.6
WAVELAND YACHT   0600   58 69  340/ 16/ 22 1012.8
GRAND ISLE       0636   63 70  340/ 19/ 26 1013.0
SOUTHWEST PASS   0600   63 51  290/  7/  9 1012.8
NEW CANAL        0606   60     350/ 17/ 24 1014.6
SHELL BEACH      0600   62 71  340/ 19/ 22 1012.8

OFFSHORE STATIONS

STATION/POSITION TIME  TEMP    WIND        PRES    WAVE
                       AIR SEA DIR/SP/G            HT/PER
                 (UTC) (F)     (DEG/KT/KT) (MB)    (FT/S)
64 S DAUPHIN ISL 0650   69 73  280/ 19/ 23 1011.1    4/ 4

$$




USA.gov is the U.S. government's official web portal to all federal, state and local government web resources and services.